[[{"header":{"parameterUnit":"m.s-1","parameterCategory":1,"la1":30.2991,"la2":30.254,"lo1":-89.0895,"lo2":-89.0444,"dy":0.0017,"dx":0.0017,"nx":28,"ny":28,"refTime":"2026-02-06T09:00:00:Z","depth":0,"parameterNumber":2,"parameterNumberName":"U-component_of_WINDS"},"data":[0,0,0,0,0,0,0,0,0,0,0,0,0,0,0,0,0,0,0,0,0,0,0,0,0,0,0,0,0,0,0,0,0,0,0,0,0,0,0,0,0,0,0,0,0,0,0,0,0,0,0,0,0,0,0,0,0,0,-0.9818,-0.9819,0,-0.9917,-0.9919,-0.992,-0.9917,-0.9915,-0.9914,-0.9913,-1.0017,-1.0021,-1.0025,0,0,0,0,0,0,0,0,0,0,0,0,0,-0.9626,-0.9629,-0.9817,-0.9819,-0.982,-0.9917,-0.9919,-0.992,-0.9917,-0.9915,-0.9913,-0.9912,-1.0016,-1.0021,-1.0025,0,0,0,0,0,0,0,0,0,0,0,0,0,-0.9716,-0.9631,-0.9817,-0.983,-0.9832,-0.9917,-0.9919,-0.992,-0.9917,-0.9915,-0.9913,-0.9911,-1.0014,-1.002,-1.0026,-1.0105,0,0,-1.0045,-1.0047,0,0,0,0,0,0,0,0,-0.9711,-0.9723,-0.9827,-0.9829,-0.9832,-0.9902,-0.9889,-0.9982,-0.9918,-0.9885,-0.9912,-0.991,-0.9981,-0.9989,-1.0013,-1.011,-1.0115,-1.0045,-1.0049,-1.0052,-1.0053,0,0,0,0,0,0,0,-0.9704,-0.9719,-0.9857,-0.9828,-0.9831,-0.9831,-0.9842,-0.9907,-0.9943,-0.9888,-0.9888,-0.9899,-0.9982,-1.0007,-1.0015,-1.0116,-1.0045,-1.0051,-1.0054,-1.0057,-1.0285,-1.0287,0,0,0,0,0,0,-0.9695,-0.9713,-0.9854,-0.986,-0.9765,-0.9837,-0.9848,-0.9882,-0.9943,-0.995,-0.9901,-0.9899,-0.9998,-1.0008,-1.0019,-1.0117,-1.0052,-1.0057,-1.0061,-1.0282,-1.0285,-1.0288,0,0,0,0,0,0,-0.9691,-0.9708,-0.985,-0.9787,-0.9805,-0.9842,-0.988,-0.9885,-0.991,-0.9953,-0.9959,-0.992,-0.9996,-1.001,-1.0084,-1.0121,-1.006,-1.0066,-1.0279,-1.0283,-1.0286,-1.0313,0,0,0,0,0,0,-0.9686,-0.9706,-0.9737,-0.9787,-0.9808,-0.9913,-0.9882,-0.9888,-0.9921,-0.9919,-0.9972,-0.9979,-0.9996,-1.0075,-1.009,-1.0128,-1.007,-1.0276,-1.0281,-1.0285,-1.0309,-1.0317,-1.0324,0,0,0,0,0,-0.9679,-0.974,-0.9738,-0.9755,-0.9847,-0.9915,-0.9927,-0.9944,-0.9923,-0.9955,-0.9982,-0.9978,-1.0113,-1.0082,-1.01,-1.014,-1.0274,-1.028,-1.0285,-1.0306,-1.0315,-1.0324,0,0,0,0,0,0,-0.9694,-0.9747,-0.9745,-0.9825,-0.9865,-0.9914,-0.9954,-0.9954,-1.0001,-0.9998,-1.0017,-1.0029,-1.0103,-1.0128,-1.0093,-1.022,-1.0191,-1.02,-1.0201,-1.0211,-1.0218,-1.0211,-1.0076,0,0,0,0,0,-0.9706,-0.9756,-0.9801,-0.9867,-0.9887,-0.9917,-0.9947,-0.9957,-1.0,-1.0017,-1.005,-1.0092,-1.0144,-1.0178,-1.0229,-1.0312,-1.0324,-1.0348,-1.0355,-1.0361,-1.0369,-1.0416,-1.0427,-1.0305,-1.0305,-1.0305,0,0,-0.9733,-0.9768,-0.9799,-0.9871,-0.9903,-0.9956,-0.9931,-0.9988,-1.0028,-1.0026,-1.0098,-1.0123,-1.0171,-1.025,-1.0287,-1.0274,-1.0405,-1.0368,-1.0372,-1.0377,-1.0423,-1.0434,-1.0444,-1.0309,-1.0308,-1.0308,0,0,-0.9809,-0.9839,-0.9899,-0.9931,-0.998,-0.9999,-1.0013,-1.0062,-1.0079,-1.0151,-1.0151,-1.0198,-1.0287,-1.0322,-1.0352,-1.0439,-1.0438,-1.0455,-1.0495,-1.054,-1.055,-1.0558,-1.0591,-1.0603,-1.0463,-1.0463,-1.0463,0,-0.9836,-0.9915,-0.9929,-0.9986,-1.0018,-1.0018,-1.0078,-1.0109,-1.0172,-1.0195,-1.0179,-1.0291,-1.0323,-1.0411,-1.0432,-1.0455,-1.0473,-1.045,-1.0547,-1.0556,-1.0564,-1.0596,-1.0608,-1.0465,-1.0465,-1.0464,-1.0464,0,-0.9946,-1.0001,-1.0043,-1.0103,-1.0139,-1.0198,-1.0222,-1.0257,-1.0263,-1.0284,-1.0358,-1.0396,-1.0455,-1.0476,-1.0482,-1.0564,-1.0555,-1.0542,-1.0515,-1.0577,-1.0608,-1.062,-1.0468,-1.0467,-1.0466,-1.0466,0,0,-1.0037,-1.0103,-1.0119,-1.0147,-1.02,-1.0243,-1.0301,-1.0357,-1.0388,-1.0431,-1.0481,-1.0556,-1.0545,-1.0578,-1.0588,-1.0628,-1.0696,-1.0611,-1.0612,-1.0627,-1.0791,-1.0802,-1.0815,-1.0694,-1.0697,-1.0699,-1.0788,0,-1.012,-1.0223,-1.0238,-1.0329,-1.038,-1.038,-1.0431,-1.0469,-1.049,-1.0537,-1.056,-1.0614,-1.0594,-1.0614,-1.0653,-1.068,-1.073,-1.0673,-1.0743,-1.0746,-1.0734,-1.0831,-1.0842,-1.0924,-1.0799,-1.0801,-1.0803,0,-1.0231,-1.0277,-1.0373,-1.042,-1.0442,-1.0487,-1.054,-1.0584,-1.0628,-1.0641,-1.0677,-1.0682,-1.0743,-1.0711,-1.0796,-1.0757,-1.0786,-1.0803,-1.0807,-1.0816,-1.078,-1.0845,-1.0951,-1.0964,-1.0821,-1.082,-1.0818,0,-1.029,-1.0375,-1.0444,-1.0467,-1.0523,-1.0555,-1.058,-1.0621,-1.0654,-1.07,-1.0722,-1.0775,-1.0804,-1.0845,-1.0864,-1.0838,-1.0949,-1.0917,-1.0962,-1.0962,-1.0988,-1.0986,-1.1102,-1.1002,-1.1002,-1.1002,-1.1002,0,-1.0382,-1.0442,-1.0471,-1.0514,-1.0581,-1.0597,-1.0663,-1.0686,-1.0723,-1.0771,-1.0773,-1.0818,-1.0839,-1.0888,-1.0903,-1.0972,-1.0984,-1.0997,-1.1001,-1.0998,-1.0997,-1.102,-1.1015,-1.1005,-1.1004,-1.1004,-1.1003,0,-1.0461,-1.0482,-1.0558,-1.0603,-1.0616,-1.0664,-1.0703,-1.0745,-1.0765,-1.0825,-1.084,-1.0872,-1.0929,-1.0951,-1.1021,-1.1031,-1.1111,-1.1109,-1.1097,-1.1098,-1.1142,-1.1139,-1.1279,-1.1299,-1.1183,-1.1184,-1.1185,0,-1.0519,-1.0565,-1.0616,-1.0647,-1.0673,-1.0724,-1.0758,-1.0774,-1.0809,-1.0862,-1.0898,-1.0954,-1.1001,-1.1092,-1.1121,-1.1175,-1.1175,-1.1221,-1.1184,-1.118,-1.1179,-1.1177,-1.1182,-1.1228,-1.123,-1.1231,-1.1231,0,-1.0622,-1.0631,-1.0679,-1.073,-1.077,-1.0812,-1.0852,-1.0878,-1.0901,-1.094,-1.0998,-1.1034,-1.1105,-1.1161,-1.1216,-1.1242,-1.1242,-1.1242,-1.1256,-1.1255,-1.1247,-1.1254,-1.1118,-1.124,-1.1239,-1.1238,-1.1238,-1.1237,-1.0694,-1.0735,-1.0777,-1.0831,-1.0862,-1.09,-1.0942,-1.0966,-1.1015,-1.1073,-1.108,-1.1142,-1.1185,-1.1258,-1.1286,-1.1335,-1.1324,-1.1343,-1.1348,-1.1353,-1.1357,-1.1236,-1.1345,-1.1345,-1.1345,-1.1345,-1.1344,0,-1.0799,-1.0826,-1.0874,-1.0931,-1.0973,-1.0966,-1.1011,-1.1047,-1.1102,-1.1141,-1.1186,-1.1253,-1.1307,-1.134,-1.1395,-1.1428,-1.143,-1.1443,-1.1442,-1.1448,-1.1364,-1.1347,-1.1441,-1.1441,-1.1441,-1.1441,-1.1441,-1.1441,-1.0859,-1.0929,-1.0942,-1.1027,-1.1053,-1.1114,-1.114,-1.1175,-1.1206,-1.128,-1.1326,-1.1346,-1.1383,-1.1441,-1.149,-1.1499,-1.152,-1.1534,-1.1542,-1.1463,-1.1454,-1.1444,-1.1429,-1.1538,-1.1538,-1.1622,-1.1623,-1.1624]},{"header":{"parameterUnit":"m.s-1","parameterCategory":1,"la1":30.2991,"la2":30.254,"lo1":-89.0895,"lo2":-89.0444,"dy":0.0017,"dx":0.0017,"nx":28,"ny":28,"refTime":"2026-02-06T09:00:00:Z","depth":0,"parameterNumber":3,"parameterNumberName":"V-component_of_WINDS"},"data":[0,0,0,0,0,0,0,0,0,0,0,0,0,0,0,0,0,0,0,0,0,0,0,0,0,0,0,0,0,0,0,0,0,0,0,0,0,0,0,0,0,0,0,0,0,0,0,0,0,0,0,0,0,0,0,0,0,0,-5.5752,-5.5754,0,-5.5947,-5.5949,-5.5951,-5.5927,-5.5924,-5.592,-5.5917,-5.6113,-5.6121,-5.6129,0,0,0,0,0,0,0,0,0,0,0,0,0,-5.5357,-5.5364,-5.5752,-5.5754,-5.5757,-5.5946,-5.5949,-5.5952,-5.5927,-5.5923,-5.592,-5.5916,-5.611,-5.612,-5.613,0,0,0,0,0,0,0,0,0,0,0,0,0,-5.5537,-5.5367,-5.5752,-5.5768,-5.5771,-5.5946,-5.5949,-5.5952,-5.5928,-5.5923,-5.5919,-5.5914,-5.6107,-5.6119,-5.6131,-5.6301,0,0,-5.6168,-5.6173,0,0,0,0,0,0,0,0,-5.5527,-5.5552,-5.5763,-5.5767,-5.5771,-5.5908,-5.5881,-5.6069,-5.5929,-5.5868,-5.5917,-5.5912,-5.6048,-5.6065,-5.6112,-5.631,-5.6318,-5.6169,-5.6177,-5.6182,-5.6185,0,0,0,0,0,0,0,-5.5515,-5.5543,-5.5829,-5.5766,-5.5771,-5.5764,-5.5785,-5.5917,-5.5982,-5.5873,-5.5872,-5.5896,-5.6049,-5.61,-5.6116,-5.6321,-5.6169,-5.618,-5.6187,-5.6192,-5.667,-5.6675,0,0,0,0,0,0,-5.5499,-5.5533,-5.5823,-5.5835,-5.5635,-5.5775,-5.5798,-5.5868,-5.5981,-5.5993,-5.5899,-5.5894,-5.6081,-5.6102,-5.6123,-5.6331,-5.6182,-5.6193,-5.62,-5.6664,-5.6671,-5.6677,0,0,0,0,0,0,-5.549,-5.5525,-5.5815,-5.5684,-5.572,-5.5787,-5.5866,-5.5875,-5.5925,-5.6001,-5.6012,-5.5939,-5.6078,-5.6106,-5.6257,-5.6337,-5.6199,-5.621,-5.6658,-5.6666,-5.6674,-5.6746,0,0,0,0,0,0,-5.5479,-5.5522,-5.5588,-5.5685,-5.5727,-5.5947,-5.5871,-5.5882,-5.5947,-5.5941,-5.6041,-5.6053,-5.6077,-5.6239,-5.6269,-5.6351,-5.6219,-5.6651,-5.6662,-5.6671,-5.6737,-5.6756,-5.6772,0,0,0,0,0,-5.5465,-5.5599,-5.5591,-5.5626,-5.5811,-5.5952,-5.5976,-5.6002,-5.5953,-5.602,-5.6068,-5.605,-5.6323,-5.6255,-5.6289,-5.6375,-5.6646,-5.6659,-5.667,-5.673,-5.6752,-5.6772,0,0,0,0,0,0,-5.5508,-5.5612,-5.5605,-5.5775,-5.5855,-5.5948,-5.6033,-5.6025,-5.6119,-5.611,-5.6137,-5.616,-5.6313,-5.6359,-5.6282,-5.6546,-5.6478,-5.6497,-5.6511,-5.6534,-5.6551,-5.6537,-5.623,0,0,0,0,0,-5.5537,-5.5644,-5.5729,-5.5871,-5.5912,-5.5965,-5.6027,-5.6041,-5.6124,-5.6157,-5.6217,-5.6298,-5.6402,-5.647,-5.657,-5.6743,-5.6765,-5.6819,-5.6837,-5.685,-5.6867,-5.6964,-5.6989,-5.6716,-5.6716,-5.6716,0,0,-5.5599,-5.5669,-5.5735,-5.5881,-5.5945,-5.6054,-5.5994,-5.6111,-5.6193,-5.6175,-5.6323,-5.6369,-5.6461,-5.6625,-5.67,-5.6667,-5.6947,-5.6866,-5.6876,-5.6886,-5.6979,-5.7004,-5.7027,-5.6725,-5.6723,-5.6722,0,0,-5.5768,-5.5831,-5.5957,-5.6023,-5.612,-5.6155,-5.6185,-5.628,-5.6311,-5.6459,-5.6449,-5.6545,-5.6723,-5.679,-5.6847,-5.7041,-5.7028,-5.7073,-5.7164,-5.7257,-5.7279,-5.7298,-5.7369,-5.7394,-5.7089,-5.7089,-5.7089,0,-5.5832,-5.5997,-5.6023,-5.6143,-5.6208,-5.6198,-5.6326,-5.6387,-5.6512,-5.6557,-5.6519,-5.6744,-5.6805,-5.6985,-5.7032,-5.7078,-5.7114,-5.7062,-5.7274,-5.7293,-5.7312,-5.7379,-5.7406,-5.7094,-5.7093,-5.7093,-5.7092,0,-5.6072,-5.6187,-5.6277,-5.64,-5.6474,-5.6597,-5.6641,-5.6713,-5.672,-5.6759,-5.691,-5.6983,-5.7098,-5.7141,-5.7148,-5.7323,-5.73,-5.7268,-5.72,-5.7342,-5.7407,-5.7433,-5.7101,-5.7099,-5.7098,-5.7097,0,0,-5.6274,-5.641,-5.6443,-5.6499,-5.6606,-5.6695,-5.6817,-5.6931,-5.6993,-5.7079,-5.7183,-5.7334,-5.7306,-5.7371,-5.7384,-5.7466,-5.7617,-5.7424,-5.7427,-5.7459,-5.7815,-5.784,-5.787,-5.7608,-5.7613,-5.7617,-5.7808,0,-5.6454,-5.6673,-5.67,-5.6894,-5.7001,-5.6993,-5.7099,-5.7176,-5.7215,-5.7311,-5.7353,-5.7461,-5.7414,-5.7453,-5.7534,-5.7582,-5.769,-5.7568,-5.7705,-5.771,-5.7684,-5.7903,-5.793,-5.8106,-5.7833,-5.7838,-5.7841,0,-5.6695,-5.679,-5.6995,-5.7089,-5.7134,-5.723,-5.7337,-5.7428,-5.7515,-5.7538,-5.7611,-5.7614,-5.774,-5.7666,-5.784,-5.7757,-5.7814,-5.7846,-5.7853,-5.7868,-5.7785,-5.7926,-5.8163,-5.819,-5.788,-5.7877,-5.7874,0,-5.6824,-5.7002,-5.7149,-5.7197,-5.7309,-5.7377,-5.7426,-5.7508,-5.7576,-5.7668,-5.7712,-5.7818,-5.7876,-5.7957,-5.7989,-5.7932,-5.8162,-5.809,-5.8184,-5.8184,-5.8234,-5.8231,-5.8486,-5.8268,-5.8268,-5.8267,-5.8267,0,-5.7024,-5.715,-5.7209,-5.7299,-5.744,-5.7469,-5.7607,-5.7654,-5.7727,-5.7825,-5.7823,-5.7916,-5.7951,-5.8049,-5.8074,-5.8215,-5.8241,-5.8262,-5.8268,-5.8264,-5.8261,-5.8303,-5.8292,-5.8274,-5.8273,-5.8271,-5.827,0,-5.7192,-5.7237,-5.7396,-5.749,-5.7516,-5.7616,-5.7696,-5.7783,-5.782,-5.7945,-5.7976,-5.8035,-5.815,-5.819,-5.8328,-5.8345,-5.851,-5.8503,-5.8481,-5.8483,-5.8575,-5.8567,-5.8867,-5.8909,-5.8662,-5.8664,-5.8666,0,-5.7318,-5.7415,-5.752,-5.7587,-5.7639,-5.7746,-5.7816,-5.7847,-5.7919,-5.8025,-5.81,-5.8214,-5.8308,-5.8491,-5.8546,-5.8652,-5.865,-5.8748,-5.8666,-5.8659,-5.8653,-5.8648,-5.8658,-5.8763,-5.8766,-5.8768,-5.877,0,-5.7537,-5.7554,-5.7654,-5.7763,-5.7846,-5.7933,-5.8017,-5.8071,-5.8115,-5.8195,-5.8314,-5.8387,-5.8529,-5.8643,-5.8752,-5.8801,-5.8794,-5.8795,-5.8823,-5.882,-5.8804,-5.8816,-5.8525,-5.8788,-5.8786,-5.8785,-5.8784,-5.8783,-5.7689,-5.7776,-5.7863,-5.7976,-5.8042,-5.8121,-5.8208,-5.8257,-5.8357,-5.8477,-5.8489,-5.8617,-5.8701,-5.8846,-5.8901,-5.9001,-5.8973,-5.9013,-5.9023,-5.9033,-5.9041,-5.8787,-5.902,-5.902,-5.9019,-5.9019,-5.9018,0,-5.7909,-5.7965,-5.8068,-5.8187,-5.8275,-5.8261,-5.8353,-5.8427,-5.854,-5.862,-5.8713,-5.8849,-5.8959,-5.9023,-5.9133,-5.9201,-5.92,-5.9229,-5.9225,-5.9237,-5.9058,-5.9024,-5.9228,-5.9228,-5.9228,-5.9228,-5.9228,-5.9228,-5.8034,-5.8181,-5.8209,-5.8388,-5.8443,-5.857,-5.8624,-5.8696,-5.876,-5.8913,-5.9006,-5.9047,-5.912,-5.9236,-5.9336,-5.9352,-5.9393,-5.9425,-5.9438,-5.9271,-5.9249,-5.9229,-5.9197,-5.9434,-5.9434,-5.9609,-5.961,-5.9612]}]]